Location: Camps Bay
(33.9517°S, 18.3844°E)
Time: 06:35:05
(UTC+00:00)

Meteor 1-31 Rocket - Pass Details

Date: 18 January 2020
Orbit: 520 x 548 km, 97.6° (Epoch: 24 February)

Event Time Altitude Azimuth Distance (km) Brightness Sun altitude
Exits shadow 02:40:22 - 12° (NNE) 2,675 6.1 -13.7°
Rises 02:40:28 0° 12° (NNE) 2,636 6.0 -13.7°
Reaches altitude 10° 02:42:33 10° 11° (N) 1,757 5.1 -13.4°
Maximum altitude 02:46:20 84° 283° (WNW) 536 2.6 -12.7°
Drops below altitude 10° 02:50:12 10° 193° (SSW) 1,789 5.7 -12.1°
Sets 02:52:20 0° 192° (SSW) 2,689 6.7 -11.7°
